Date String (YYYY-MM-DD hh:mm:ss) UTC,Instrument flags,Ambient pressure (hPa),Sample flow (lpm),Bypass flow (lpm),Sample temperature (°C),Ambient temperature (°C),ASC tube jacket temperature (°C),LED temperature (°C),Box temperature (°C),Sample RH (%),Span deviation,Mass concentration (μg/m³),Mass concentration (μg/m³),Mass concentration (μg/m³)
DateTimeUTC,F1_M11,P_M11,Q1_M11,Q2_M11,T1_M11,T2_M11,T3_M11,T4_M11,T5_M11,U1_M11,ZSPAN_M11,X0_M11,X2_M11,X1_M11
2021-10-17 09:00:00,,0832.0,4.99,0.00,28.1,27.1,00.0,37.3,29.8,10.1,0000.0,0007.50,0003.29,0002.61
2021-10-17 09:01:00,,0831.9,5.00,0.00,28.1,27.1,00.0,37.3,29.8,10.1,0000.0,0006.66,0003.33,0002.65
2021-10-17 09:02:00,,0831.9,5.00,0.00,28.1,27.1,00.0,37.3,29.8,10.1,0000.0,0006.85,0003.36,0002.72
2021-10-17 09:03:00,,0831.9,4.99,0.00,28.1,27.1,00.0,37.3,29.8,10.1,0000.0,0006.90,0003.38,0002.79
2021-10-17 09:04:00,,0831.9,5.00,0.00,28.1,27.1,00.0,37.3,29.8,10.1,0000.0,0007.02,0003.42,0002.82
2021-10-17 09:05:00,,0831.8,5.00,0.00,28.1,27.0,00.0,37.3,29.8,10.1,0000.0,0007.29,0003.44,0002.84
2021-10-17 09:06:00,,0831.7,5.01,0.00,28.1,27.0,00.0,37.2,29.8,10.2,0000.0,0007.47,0003.46,0002.84
2021-10-17 09:07:00,,0831.8,5.01,0.00,28.1,27.0,00.0,37.2,29.8,10.2,0000.0,0007.49,0003.49,0002.86
2021-10-17 09:08:00,,0831.7,5.00,0.00,28.1,27.0,00.0,37.2,29.7,10.1,0000.0,0007.23,0003.50,0002.87
2021-10-17 09:09:00,,0831.7,5.00,0.00,28.1,27.0,00.0,37.2,29.7,10.0,0000.0,0006.31,0003.44,0002.83
2021-10-17 09:10:00,,0831.8,5.00,0.00,28.0,27.0,00.0,37.2,29.7,10.0,0000.0,0006.38,0003.43,0002.77
2021-10-17 09:11:00,,0831.8,4.99,0.00,28.0,27.0,00.0,37.2,29.7,09.9,0000.0,0006.46,0003.40,0002.71
2021-10-17 09:12:00,,0831.8,5.01,0.00,28.0,27.0,00.0,37.2,29.7,10.0,0000.0,0006.69,0003.39,0002.70
2021-10-17 09:13:00,,0831.8,5.00,0.00,28.0,27.0,00.0,37.2,29.7,10.1,0000.0,0006.96,0003.42,0002.69
2021-10-17 09:14:00,,0831.7,5.00,0.00,28.0,27.0,00.0,37.2,29.7,10.1,0000.0,0006.96,0003.44,0002.69
2021-10-17 09:15:00,,0831.7,5.00,0.00,28.0,27.0,00.0,37.2,29.7,10.0,0000.0,0007.10,0003.42,0002.70
2021-10-17 09:16:00,,0831.7,5.00,0.00,28.0,27.0,00.0,37.2,29.7,09.9,0000.0,0006.85,0003.37,0002.62
2021-10-17 09:17:00,,0831.7,5.01,0.00,28.0,27.0,00.0,37.2,29.7,09.9,0000.0,0006.62,0003.30,0002.53
2021-10-17 09:18:00,,0831.8,5.00,0.00,28.0,27.0,00.0,37.2,29.7,09.9,0000.0,0006.85,0003.20,0002.42
2021-10-17 09:19:00,,0831.7,4.99,0.00,28.0,27.0,00.0,37.2,29.7,09.9,0000.0,0007.21,0003.16,0002.37
2021-10-17 09:20:00,,0831.7,4.99,0.00,28.0,27.0,00.0,37.1,29.7,10.0,0000.0,0007.51,0003.18,0002.34
2021-10-17 09:21:00,,0831.8,5.00,0.00,28.0,27.0,00.0,37.1,29.7,10.0,0000.0,0008.32,0003.18,0002.35
2021-10-17 09:22:00,,0831.8,5.00,0.00,27.9,26.9,00.0,37.1,29.6,10.0,0000.0,0008.36,0003.22,0002.39
2021-10-17 09:23:00,,0831.7,5.01,0.00,27.9,26.9,00.0,37.1,29.6,09.9,0000.0,0008.36,0003.21,0002.37
2021-10-17 09:24:00,,0831.7,4.99,0.00,27.9,26.9,00.0,37.1,29.6,10.0,0000.0,0008.15,0003.17,0002.32
2021-10-17 09:25:00,,0831.7,5.00,0.00,27.9,26.9,00.0,37.1,29.7,10.1,0000.0,0008.26,0003.15,0002.29
2021-10-17 09:26:00,,0831.7,5.01,0.00,27.9,26.9,00.0,37.1,29.6,10.2,0000.0,0008.58,0003.14,0002.29
2021-10-17 09:27:00,,0831.7,5.00,0.00,27.9,26.9,00.0,37.1,29.6,10.1,0000.0,0009.36,0003.19,0002.36
2021-10-17 09:28:00,,0831.7,5.00,0.00,27.9,26.9,00.0,37.1,29.6,10.0,0000.0,0009.68,0003.24,0002.40
2021-10-17 09:29:00,,0831.7,5.00,0.00,27.9,26.9,00.0,37.1,29.6,09.9,0000.0,0009.63,0003.27,0002.43
2021-10-17 09:30:00,,0831.7,5.01,0.00,27.9,26.9,00.0,37.1,29.6,10.0,0000.0,0009.40,0003.26,0002.43
2021-10-17 09:31:00,,0831.7,4.99,0.00,27.9,26.9,00.0,37.1,29.6,10.0,0000.0,0009.46,0003.25,0002.42
2021-10-17 09:32:00,,0831.7,5.00,0.00,27.9,26.8,00.0,37.0,29.6,10.1,0000.0,0008.83,0003.25,0002.44
2021-10-17 09:33:00,,0831.7,5.01,0.00,27.9,26.8,00.0,37.0,29.6,10.2,0000.0,0008.66,0003.29,0002.47
2021-10-17 09:34:00,,0831.7,5.00,0.00,27.8,26.8,00.0,37.0,29.6,10.2,0000.0,0008.51,0003.30,0002.52
2021-10-17 09:35:00,,0831.7,5.00,0.00,27.8,26.8,00.0,37.0,29.6,10.3,0000.0,0008.62,0003.32,0002.59
2021-10-17 09:36:00,,0831.7,5.00,0.00,27.8,26.8,00.0,37.0,29.6,10.3,0000.0,0008.68,0003.35,0002.67
2021-10-17 09:37:00,,0831.7,5.00,0.00,27.8,26.8,00.0,37.0,29.5,10.2,0000.0,0008.22,0003.37,0002.68
2021-10-17 09:38:00,,0831.7,5.01,0.00,27.8,26.8,00.0,37.0,29.5,10.2,0000.0,0007.59,0003.37,0002.66
2021-10-17 09:39:00,,0831.7,5.01,0.00,27.8,26.8,00.0,37.0,29.6,10.2,0000.0,0007.01,0003.36,0002.67
2021-10-17 09:40:00,,0831.6,4.99,0.00,27.8,26.8,00.0,37.0,29.6,10.2,0000.0,0007.28,0003.44,0002.73
2021-10-17 09:41:00,,0831.6,5.00,0.00,27.8,26.8,00.0,37.0,29.6,10.2,0000.0,0008.45,0003.50,0002.79
2021-10-17 09:42:00,,0831.6,5.00,0.00,27.8,26.8,00.0,37.0,29.6,10.2,0000.0,0008.23,0003.52,0002.86
2021-10-17 09:43:00,,0831.5,5.01,0.00,27.8,26.9,00.0,37.0,29.6,10.3,0000.0,0008.08,0003.53,0002.90
2021-10-17 09:44:00,,0831.5,5.00,0.00,27.8,26.9,00.0,37.0,29.6,10.3,0000.0,0008.06,0003.54,0002.92
2021-10-17 09:45:00,,0831.5,5.00,0.00,27.8,26.9,00.0,37.0,29.6,10.3,0000.0,0008.52,0003.49,0002.91
2021-10-17 09:46:00,,0831.6,4.99,0.00,27.8,26.9,00.0,36.9,29.6,10.3,0000.0,0008.50,0003.51,0002.92
2021-10-17 09:47:00,,0831.6,5.01,0.00,27.8,26.9,00.0,36.9,29.6,10.3,0000.0,0008.55,0003.51,0002.91
2021-10-17 09:48:00,,0831.5,5.00,0.00,27.8,26.9,00.0,36.9,29.6,10.2,0000.0,0008.63,0003.54,0002.91
2021-10-17 09:49:00,,0831.6,5.00,0.00,27.8,26.8,00.0,36.9,29.6,09.9,0000.0,0008.54,0003.51,0002.87
2021-10-17 09:50:00,,0831.5,4.99,0.00,27.8,26.8,00.0,37.0,29.6,09.5,0000.0,0008.44,0003.45,0002.77
2021-10-17 09:51:00,,0831.5,5.00,0.00,27.8,26.8,00.0,37.0,29.6,09.7,0000.0,0008.19,0003.33,0002.64
2021-10-17 09:52:00,,0831.5,5.01,0.00,27.8,26.8,00.0,36.9,29.5,09.5,0000.0,0006.75,0003.24,0002.52
2021-10-17 09:53:00,,0831.5,5.00,0.00,27.8,26.8,00.0,36.9,29.5,09.4,0000.0,0006.58,0003.15,0002.37
2021-10-17 09:54:00,,0831.5,4.99,0.00,27.8,26.8,00.0,36.9,29.5,09.5,0000.0,0007.51,0003.06,0002.24
2021-10-17 09:55:00,,0831.5,5.00,0.00,27.8,26.8,00.0,36.9,29.5,09.6,0000.0,0007.65,0002.90,0002.10
2021-10-17 09:56:00,,0831.5,4.99,0.00,27.8,26.8,00.0,36.9,29.5,09.6,0000.0,0006.97,0002.85,0001.99
2021-10-17 09:57:00,,0831.5,5.00,0.00,27.8,26.8,00.0,36.9,29.5,09.6,0000.0,0006.58,0002.69,0001.85
2021-10-17 09:58:00,,0831.4,5.00,0.00,27.8,26.8,00.0,36.9,29.5,09.6,0000.0,0006.14,0002.54,0001.72
2021-10-17 09:59:00,,0831.5,4.98,0.00,27.8,26.8,00.0,36.9,29.5,09.6,0000.0,0005.87,0002.37,0001.59
